FOURIER (65298 NORAD) Tracking and Keplerian Element Data

This shows tracking and keplerian element data for the satellite.

Feedback or suggestion? Click here.




ElementValue
Catalog65298
NameFOURIER
Epoch Orbit1740
Epoch Day354.14300339
Epoch Year2025
RAAN74.6818
Inclination97.9707
Eccentricity0.0013152
Argument of Perigee288.3857
Mean Anonmoly71.5922
Mean Motion14.74938087
Decay Rate6.049E-05
L11 65298U 25185B 25354.14300339 .00006049 00000+0 90634-3 0 9996
L22 65298 97.9707 74.6818 0013152 288.3857 71.5922 14.74938087 17407



Live tracking and technical data element details for FOURIER (NORAD 65298). FOURIER can be tracked NOW for your location showing map with azimuth and elevation plus other details from your city location.







IsCatalogInMostPopularTable: catalog: 65298, numindb: 12
Update: records affected: 1



GetName: 65298 FOURIER

Hit Count: updated at: Tue, 21 Apr 2026 20:10:46 GMT